AAL2089 KPHL-KPHX

Flight info

Callsign AAL2089
Flight time 5h 0m
Altitude 38000
Route MXE PENSY J110 STL BUM ICT TOTOE FTI J244 ZUN EAGUL6
Aircraft A321/M-SDE3FGHIRWY/LB1

Departure

Time 2026-05-08 01:06
Airport Philadelphia International Airport (KPHL)

Arrival

Time 2026-05-08 06:06
Airport Phoenix Sky Harbor International Airport (KPHX)
Time Latitude Longitude Altitude Speed Heading
2026-05-08 00:40 39.87356 -75.24663 20 ft 0 kts 271°
2026-05-08 00:58 39.87356 -75.24659 19 ft 3 kts 271°
2026-05-08 00:58 39.87358 -75.24624 20 ft 4 kts 257°
2026-05-08 00:58 39.87366 -75.24593 23 ft 4 kts 233°
2026-05-08 00:59 39.87389 -75.24575 22 ft 1 kts 171°
2026-05-08 00:59 39.87394 -75.24576 22 ft 0 kts 171°
2026-05-08 01:01 39.87390 -75.24575 20 ft 4 kts 171°
2026-05-08 01:02 39.87345 -75.24565 23 ft 13 kts 171°
2026-05-08 01:02 39.87277 -75.24450 21 ft 15 kts 83°
2026-05-08 01:02 39.87310 -75.24302 20 ft 14 kts 73°
2026-05-08 01:02 39.87309 -75.24219 21 ft 12 kts 114°
2026-05-08 01:03 39.87262 -75.24170 23 ft 8 kts 152°
2026-05-08 01:03 39.87191 -75.24124 25 ft 15 kts 153°
2026-05-08 01:03 39.87095 -75.24082 22 ft 15 kts 166°
2026-05-08 01:03 39.86997 -75.24050 22 ft 13 kts 165°
2026-05-08 01:04 39.86908 -75.23988 21 ft 13 kts 126°
2026-05-08 01:04 39.86899 -75.23972 20 ft 2 kts 125°
2026-05-08 01:04 39.86859 -75.23932 19 ft 15 kts 160°
2026-05-08 01:04 39.86791 -75.23984 17 ft 7 kts 251°
2026-05-08 01:05 39.86789 -75.23993 16 ft 9 kts 251°
2026-05-08 01:05 39.86713 -75.24360 17 ft 77 kts 256°
2026-05-08 01:05 39.86433 -75.25770 16 ft 151 kts 255°
2026-05-08 01:05 39.86134 -75.27225 157 ft 179 kts 255°
2026-05-08 01:06 39.85879 -75.28428 678 ft 176 kts 256°
2026-05-08 01:06 39.85535 -75.30127 1305 ft 176 kts 257°
2026-05-08 01:06 39.85277 -75.31522 1704 ft 178 kts 264°
2026-05-08 01:06 39.85452 -75.33206 1875 ft 194 kts 287°
2026-05-08 01:07 39.85790 -75.34828 2012 ft 211 kts 286°
2026-05-08 01:07 39.86252 -75.37177 2143 ft 238 kts 285°
2026-05-08 01:07 39.86495 -75.38440 2324 ft 249 kts 285°
2026-05-08 01:07 39.87068 -75.41482 3177 ft 255 kts 285°
2026-05-08 01:08 39.87487 -75.43735 3853 ft 257 kts 284°
2026-05-08 01:08 39.87765 -75.45236 4314 ft 259 kts 284°
2026-05-08 01:08 39.87851 -75.45698 4458 ft 259 kts 284°
2026-05-08 01:09 39.89256 -75.53275 6787 ft 261 kts 284°
2026-05-08 01:09 39.89655 -75.55435 7444 ft 261 kts 284°
2026-05-08 01:09 39.89922 -75.56886 7889 ft 260 kts 284°
2026-05-08 01:09 39.90363 -75.59283 8621 ft 260 kts 284°
2026-05-08 01:10 39.90947 -75.62441 9607 ft 260 kts 283°
2026-05-08 01:10 39.91229 -75.63965 10027 ft 260 kts 283°
2026-05-08 01:10 39.91734 -75.67016 10809 ft 260 kts 275°
2026-05-08 01:10 39.91799 -75.68661 10943 ft 271 kts 268°
2026-05-08 01:11 39.91738 -75.71329 11079 ft 289 kts 268°
2026-05-08 01:11 39.91679 -75.74016 11192 ft 305 kts 268°
2026-05-08 01:11 39.91615 -75.76979 11498 ft 315 kts 268°
2026-05-08 01:11 39.91556 -75.79872 12039 ft 317 kts 268°
2026-05-08 01:12 39.91499 -75.82759 12654 ft 317 kts 267°
2026-05-08 01:12 39.91440 -75.85759 13282 ft 318 kts 267°
2026-05-08 01:12 39.91382 -75.88613 13851 ft 318 kts 266°
2026-05-08 01:12 39.91318 -75.91562 14333 ft 319 kts 266°
2026-05-08 01:13 39.91256 -75.94457 14787 ft 321 kts 266°
2026-05-08 01:13 39.91192 -75.97394 15242 ft 322 kts 266°
2026-05-08 01:13 39.91128 -76.00332 15691 ft 324 kts 266°
2026-05-08 01:13 39.91062 -76.03293 16125 ft 326 kts 266°
2026-05-08 01:14 39.90993 -76.06228 16540 ft 328 kts 265°
2026-05-08 01:14 39.90923 -76.09274 16974 ft 330 kts 265°
2026-05-08 01:14 39.90857 -76.12235 17390 ft 331 kts 265°
2026-05-08 01:14 39.90791 -76.15202 17822 ft 333 kts 265°
2026-05-08 01:15 39.90727 -76.18320 18306 ft 331 kts 266°
2026-05-08 01:15 39.90755 -76.21277 18653 ft 332 kts 269°
2026-05-08 01:15 39.90873 -76.24351 18992 ft 334 kts 270°
2026-05-08 01:15 39.91034 -76.27464 19332 ft 335 kts 270°
2026-05-08 01:16 39.91199 -76.30492 19646 ft 336 kts 270°
2026-05-08 01:16 39.91306 -76.32562 19855 ft 336 kts 270°
2026-05-08 01:16 39.91454 -76.35593 20169 ft 337 kts 270°
2026-05-08 01:16 39.91611 -76.39096 20526 ft 339 kts 270°
2026-05-08 01:17 39.91726 -76.41809 20816 ft 339 kts 269°
2026-05-08 01:17 39.91856 -76.44950 21138 ft 340 kts 269°
2026-05-08 01:17 39.91990 -76.48293 21484 ft 342 kts 269°
2026-05-08 01:17 39.92103 -76.51138 21825 ft 342 kts 270°
2026-05-08 01:18 39.92228 -76.54206 22248 ft 341 kts 270°
2026-05-08 01:18 39.92356 -76.57315 22618 ft 342 kts 270°
2026-05-08 01:18 39.92485 -76.60453 22961 ft 343 kts 270°
2026-05-08 01:18 39.92603 -76.63470 23284 ft 344 kts 270°
2026-05-08 01:19 39.92727 -76.66707 23594 ft 345 kts 270°
2026-05-08 01:19 39.92848 -76.69827 23863 ft 346 kts 270°
2026-05-08 01:19 39.92976 -76.73076 24175 ft 345 kts 270°
2026-05-08 01:19 39.93096 -76.76050 24460 ft 346 kts 270°
2026-05-08 01:20 39.93222 -76.79250 24738 ft 346 kts 270°
2026-05-08 01:20 39.93345 -76.82392 24999 ft 347 kts 270°
2026-05-08 01:20 39.93465 -76.85543 25250 ft 348 kts 269°
2026-05-08 01:20 39.93582 -76.88638 25560 ft 348 kts 270°
2026-05-08 01:21 39.93702 -76.91895 25868 ft 347 kts 270°
2026-05-08 01:21 39.93794 -76.94397 26086 ft 348 kts 270°
2026-05-08 01:21 39.93898 -76.97199 26318 ft 348 kts 270°
2026-05-08 01:21 39.94058 -77.01418 26649 ft 349 kts 270°
2026-05-08 01:22 39.94177 -77.04620 26896 ft 350 kts 270°
2026-05-08 01:22 39.94297 -77.07854 27132 ft 351 kts 270°
2026-05-08 01:22 39.94415 -77.11143 27380 ft 352 kts 270°
2026-05-08 01:22 39.94528 -77.14364 27624 ft 353 kts 270°
2026-05-08 01:23 39.94602 -77.16464 27759 ft 353 kts 270°
2026-05-08 01:23 39.94754 -77.20778 28061 ft 354 kts 270°
2026-05-08 01:23 39.94864 -77.23900 28290 ft 355 kts 270°
2026-05-08 01:23 39.94941 -77.26077 28432 ft 355 kts 270°
2026-05-08 01:24 39.95162 -77.32704 28806 ft 356 kts 270°
2026-05-08 01:24 39.95267 -77.35938 28974 ft 357 kts 270°
2026-05-08 01:24 39.95407 -77.40215 29171 ft 358 kts 270°
2026-05-08 01:25 39.95479 -77.42369 29269 ft 358 kts 270°
2026-05-08 01:25 39.95590 -77.45704 29449 ft 358 kts 270°
2026-05-08 01:25 39.95680 -77.48398 29618 ft 357 kts 270°
2026-05-08 01:25 39.95803 -77.52142 29868 ft 356 kts 270°
2026-05-08 01:26 39.95911 -77.55444 30072 ft 356 kts 270°
2026-05-08 01:26 39.96012 -77.58629 30244 ft 355 kts 270°
2026-05-08 01:26 39.96117 -77.62087 30423 ft 355 kts 270°
2026-05-08 01:26 39.96215 -77.65316 30561 ft 355 kts 270°
2026-05-08 01:27 39.96314 -77.68571 30714 ft 355 kts 270°
2026-05-08 01:27 39.96408 -77.71750 30862 ft 355 kts 270°
2026-05-08 01:27 39.96505 -77.75003 31029 ft 354 kts 270°
2026-05-08 01:27 39.96597 -77.78229 31187 ft 354 kts 270°
2026-05-08 01:28 39.96691 -77.81524 31357 ft 354 kts 270°
2026-05-08 01:28 39.96784 -77.84792 31497 ft 353 kts 270°
2026-05-08 01:28 39.96876 -77.87863 31645 ft 353 kts 270°
2026-05-08 01:28 39.96974 -77.91050 31810 ft 353 kts 270°
2026-05-08 01:29 39.97072 -77.94246 31952 ft 352 kts 270°
2026-05-08 01:29 39.97170 -77.97440 32118 ft 352 kts 270°
2026-05-08 01:29 39.97262 -78.00639 32248 ft 352 kts 270°
2026-05-08 01:29 39.97350 -78.03819 32381 ft 352 kts 270°
2026-05-08 01:30 39.97437 -78.07028 32520 ft 352 kts 270°
2026-05-08 01:30 39.97522 -78.10166 32665 ft 351 kts 270°
2026-05-08 01:30 39.97611 -78.13386 32812 ft 351 kts 270°
2026-05-08 01:30 39.97695 -78.16570 32962 ft 350 kts 270°
2026-05-08 01:31 39.97779 -78.19784 33115 ft 350 kts 270°
2026-05-08 01:31 39.97861 -78.22957 33250 ft 350 kts 270°
2026-05-08 01:31 39.97947 -78.26168 33391 ft 349 kts 270°
2026-05-08 01:31 39.98034 -78.29405 33529 ft 349 kts 270°
2026-05-08 01:32 39.98119 -78.32614 33669 ft 349 kts 270°
2026-05-08 01:32 39.98199 -78.35777 33836 ft 348 kts 270°
2026-05-08 01:32 39.98277 -78.38983 33921 ft 349 kts 270°
2026-05-08 01:33 39.98405 -78.44359 33923 ft 349 kts 270°
2026-05-08 01:33 39.98551 -78.50772 33927 ft 349 kts 270°
2026-05-08 01:34 39.98698 -78.57136 33930 ft 349 kts 270°
2026-05-08 01:34 39.98848 -78.63594 33929 ft 349 kts 270°
2026-05-08 01:35 39.98994 -78.70130 33953 ft 350 kts 270°
2026-05-08 01:35 39.99133 -78.76480 33939 ft 350 kts 270°
2026-05-08 01:36 39.99271 -78.82975 33948 ft 350 kts 270°
2026-05-08 01:36 39.99402 -78.89388 33945 ft 350 kts 270°
2026-05-08 01:37 39.99528 -78.95739 33957 ft 351 kts 270°
2026-05-08 01:37 39.99658 -79.02137 33968 ft 351 kts 270°
2026-05-08 01:38 39.99776 -79.08538 33959 ft 351 kts 271°
2026-05-08 01:38 39.99888 -79.14988 33965 ft 351 kts 270°
2026-05-08 01:39 39.99999 -79.21319 33966 ft 351 kts 271°
2026-05-08 01:39 40.00097 -79.26707 33973 ft 351 kts 270°
2026-05-08 01:40 40.00209 -79.33096 33983 ft 351 kts 270°
2026-05-08 01:40 40.00309 -79.39532 33986 ft 351 kts 270°
2026-05-08 01:41 40.00411 -79.45943 33995 ft 351 kts 271°
2026-05-08 01:41 40.00509 -79.52365 33979 ft 349 kts 271°
2026-05-08 01:41 40.00553 -79.55571 33409 ft 346 kts 271°
2026-05-08 01:42 40.00598 -79.58819 32805 ft 341 kts 270°
2026-05-08 01:42 40.00643 -79.61887 32324 ft 336 kts 270°
2026-05-08 01:42 40.00685 -79.64877 31834 ft 331 kts 270°
2026-05-08 01:42 40.00727 -79.67965 31320 ft 326 kts 270°
2026-05-08 01:43 40.00766 -79.70868 30798 ft 322 kts 270°
2026-05-08 01:43 40.00804 -79.73765 30447 ft 317 kts 270°
2026-05-08 01:43 40.00839 -79.76642 30210 ft 318 kts 270°
2026-05-08 01:43 40.00876 -79.79562 29955 ft 317 kts 270°
2026-05-08 01:44 40.00912 -79.82524 29675 ft 315 kts 271°
2026-05-08 01:44 40.00945 -79.85351 29395 ft 313 kts 271°
2026-05-08 01:44 40.00980 -79.88217 29117 ft 312 kts 271°
2026-05-08 01:44 40.01015 -79.91157 28826 ft 310 kts 271°
2026-05-08 01:45 40.01048 -79.94034 28548 ft 309 kts 270°
2026-05-08 01:45 40.01070 -79.96004 28358 ft 308 kts 270°
2026-05-08 01:45 40.01101 -79.98867 28086 ft 307 kts 271°
2026-05-08 01:45 40.01130 -80.01717 27964 ft 306 kts 270°
2026-05-08 01:46 40.01162 -80.04640 27993 ft 306 kts 270°
2026-05-08 01:46 40.01193 -80.07536 27998 ft 306 kts 270°
2026-05-08 01:46 40.01220 -80.10313 27998 ft 307 kts 270°
2026-05-08 01:46 40.01248 -80.13172 27997 ft 307 kts 270°
2026-05-08 01:47 40.01275 -80.15988 28003 ft 306 kts 270°
2026-05-08 01:47 40.01324 -80.21581 28004 ft 307 kts 271°
2026-05-08 01:48 40.01394 -80.29998 28004 ft 306 kts 271°
2026-05-08 01:48 40.01439 -80.35567 27999 ft 306 kts 271°
2026-05-08 01:49 40.01476 -80.40398 28004 ft 306 kts 271°
2026-05-08 01:49 40.01515 -80.45992 28002 ft 306 kts 271°
2026-05-08 01:50 40.01535 -80.48770 27995 ft 307 kts 271°
2026-05-08 01:50 40.01555 -80.51592 27996 ft 307 kts 271°
2026-05-08 01:50 40.01574 -80.54372 27991 ft 307 kts 271°
2026-05-08 01:50 40.01590 -80.57004 27994 ft 307 kts 270°
2026-05-08 01:51 40.01604 -80.60026 27997 ft 307 kts 270°
2026-05-08 01:51 40.01617 -80.62888 27996 ft 307 kts 270°
2026-05-08 01:51 40.01631 -80.65711 27999 ft 307 kts 271°
2026-05-08 01:51 40.01646 -80.68533 27999 ft 307 kts 270°
2026-05-08 01:52 40.01672 -80.74106 27998 ft 307 kts 270°
2026-05-08 01:52 40.01689 -80.79676 28002 ft 307 kts 270°
2026-05-08 01:53 40.01683 -80.85244 27997 ft 307 kts 270°
2026-05-08 01:53 40.01607 -80.90850 28004 ft 309 kts 269°
2026-05-08 01:54 40.01514 -80.96588 28008 ft 324 kts 269°
2026-05-08 01:54 40.01420 -81.02589 28010 ft 338 kts 269°
2026-05-08 01:55 40.01327 -81.08889 28005 ft 352 kts 269°
2026-05-08 01:55 40.01233 -81.15231 28119 ft 358 kts 269°
2026-05-08 01:56 40.01180 -81.18635 28348 ft 358 kts 269°
2026-05-08 01:56 40.01126 -81.21960 28706 ft 354 kts 269°
2026-05-08 01:56 40.01074 -81.25071 29043 ft 352 kts 269°
2026-05-08 01:56 40.01016 -81.28300 29278 ft 351 kts 269°
2026-05-08 01:57 40.00956 -81.31489 29456 ft 352 kts 269°
2026-05-08 01:57 40.00894 -81.34776 29624 ft 353 kts 269°
2026-05-08 01:57 40.00833 -81.38013 29836 ft 353 kts 269°
2026-05-08 01:57 40.00770 -81.41256 30086 ft 351 kts 269°
2026-05-08 01:58 40.00727 -81.43408 30225 ft 351 kts 269°
2026-05-08 01:58 40.00660 -81.46586 30410 ft 350 kts 269°
2026-05-08 01:58 40.00592 -81.49756 30584 ft 350 kts 269°
2026-05-08 01:58 40.00526 -81.52926 30761 ft 349 kts 269°
2026-05-08 01:59 40.00463 -81.56094 30930 ft 349 kts 269°
2026-05-08 01:59 40.00400 -81.59259 31120 ft 349 kts 269°
2026-05-08 01:59 40.00336 -81.62416 31295 ft 349 kts 269°
2026-05-08 01:59 40.00270 -81.65577 31473 ft 348 kts 269°
2026-05-08 02:00 40.00203 -81.68732 31620 ft 349 kts 269°
2026-05-08 02:00 40.00135 -81.71897 31763 ft 349 kts 269°
2026-05-08 02:00 40.00068 -81.75073 31936 ft 349 kts 269°
2026-05-08 02:00 40.00003 -81.78261 32107 ft 348 kts 269°
2026-05-08 02:01 39.99937 -81.81390 32292 ft 348 kts 269°
2026-05-08 02:01 39.99868 -81.84573 32469 ft 348 kts 269°
2026-05-08 02:01 39.99799 -81.87725 32644 ft 348 kts 269°
2026-05-08 02:01 39.99725 -81.90915 32815 ft 347 kts 269°
2026-05-08 02:02 39.99651 -81.94059 32990 ft 347 kts 269°
2026-05-08 02:02 39.99578 -81.97206 33153 ft 347 kts 270°
2026-05-08 02:02 39.99503 -82.00349 33315 ft 346 kts 269°
2026-05-08 02:02 39.99428 -82.03487 33473 ft 346 kts 269°
2026-05-08 02:03 39.99353 -82.06615 33638 ft 346 kts 270°
2026-05-08 02:03 39.99275 -82.09787 33794 ft 346 kts 270°
2026-05-08 02:03 39.99224 -82.11890 33914 ft 345 kts 270°
2026-05-08 02:03 39.99119 -82.16075 34025 ft 343 kts 270°
2026-05-08 02:04 39.98952 -82.22528 34020 ft 340 kts 270°
2026-05-08 02:04 39.98794 -82.28656 34022 ft 339 kts 269°
2026-05-08 02:05 39.98634 -82.34909 34035 ft 339 kts 269°
2026-05-08 02:05 39.98468 -82.41125 34017 ft 339 kts 269°
2026-05-08 02:06 39.98301 -82.47277 34014 ft 339 kts 269°
2026-05-08 02:06 39.98150 -82.52639 34018 ft 339 kts 269°
2026-05-08 02:07 39.97966 -82.59015 34018 ft 339 kts 269°
2026-05-08 02:07 39.97784 -82.65359 34027 ft 339 kts 269°
2026-05-08 02:08 39.97596 -82.71601 34026 ft 339 kts 269°
2026-05-08 02:08 39.97439 -82.76700 34028 ft 339 kts 269°
2026-05-08 02:09 39.97214 -82.84034 34001 ft 340 kts 269°
2026-05-08 02:09 39.97024 -82.90104 34002 ft 340 kts 269°
2026-05-08 02:10 39.96830 -82.96277 34014 ft 341 kts 269°
2026-05-08 02:10 39.96667 -83.01438 34008 ft 341 kts 269°
2026-05-08 02:11 39.96483 -83.08669 34031 ft 341 kts 270°
2026-05-08 02:11 39.96382 -83.14843 34032 ft 341 kts 270°
2026-05-08 02:12 39.96268 -83.21057 34014 ft 342 kts 269°
2026-05-08 02:12 39.96073 -83.27230 34016 ft 343 kts 269°
2026-05-08 02:13 39.95844 -83.33534 34019 ft 343 kts 269°
2026-05-08 02:13 39.95618 -83.39741 34019 ft 344 kts 269°
2026-05-08 02:14 39.95435 -83.44961 34027 ft 344 kts 269°
2026-05-08 02:14 39.95217 -83.51188 34030 ft 344 kts 269°
2026-05-08 02:15 39.94989 -83.57610 34033 ft 345 kts 269°
2026-05-08 02:15 39.94763 -83.63742 34029 ft 345 kts 269°
2026-05-08 02:16 39.94522 -83.70161 34016 ft 346 kts 269°
2026-05-08 02:16 39.94290 -83.76295 34014 ft 346 kts 269°
2026-05-08 02:17 39.94052 -83.82556 34015 ft 346 kts 269°
2026-05-08 02:17 39.93814 -83.88812 34016 ft 346 kts 268°
2026-05-08 02:18 39.93566 -83.95071 34026 ft 346 kts 268°
2026-05-08 02:18 39.93313 -84.01364 34019 ft 345 kts 268°
2026-05-08 02:19 39.93060 -84.07563 34018 ft 345 kts 268°
2026-05-08 02:19 39.92800 -84.13876 34026 ft 345 kts 268°
2026-05-08 02:20 39.92546 -84.20083 34025 ft 345 kts 268°
2026-05-08 02:20 39.92281 -84.26345 34023 ft 345 kts 268°
2026-05-08 02:21 39.92015 -84.32597 34010 ft 345 kts 268°
2026-05-08 02:21 39.91746 -84.38885 34014 ft 345 kts 268°
2026-05-08 02:22 39.91476 -84.45119 34019 ft 345 kts 268°
2026-05-08 02:22 39.91202 -84.51372 34020 ft 346 kts 268°
2026-05-08 02:23 39.90916 -84.57781 34021 ft 346 kts 268°
2026-05-08 02:23 39.90637 -84.63905 33977 ft 346 kts 268°
2026-05-08 02:24 39.90348 -84.70180 33997 ft 344 kts 268°
2026-05-08 02:24 39.90055 -84.76385 34003 ft 345 kts 268°
2026-05-08 02:25 39.89761 -84.82640 34013 ft 345 kts 268°
2026-05-08 02:25 39.89470 -84.88866 34018 ft 345 kts 268°
2026-05-08 02:26 39.89170 -84.95140 34021 ft 345 kts 268°
2026-05-08 02:26 39.88871 -85.01369 34023 ft 345 kts 268°
2026-05-08 02:27 39.88569 -85.07605 34004 ft 345 kts 268°
2026-05-08 02:27 39.88256 -85.13853 34002 ft 346 kts 268°
2026-05-08 02:28 39.87949 -85.20020 34004 ft 346 kts 268°
2026-05-08 02:28 39.87627 -85.26366 34007 ft 347 kts 268°
2026-05-08 02:29 39.87302 -85.32630 34012 ft 347 kts 268°
2026-05-08 02:29 39.86980 -85.38898 34009 ft 347 kts 268°
2026-05-08 02:30 39.86649 -85.45206 33993 ft 347 kts 268°
2026-05-08 02:30 39.86362 -85.50515 33999 ft 347 kts 268°
2026-05-08 02:31 39.86019 -85.56888 34004 ft 347 kts 268°
2026-05-08 02:31 39.85686 -85.63154 34002 ft 347 kts 268°
2026-05-08 02:32 39.85348 -85.69425 34004 ft 347 kts 268°
2026-05-08 02:32 39.85008 -85.75731 34006 ft 347 kts 268°
2026-05-08 02:33 39.84657 -85.82033 34003 ft 347 kts 268°
2026-05-08 02:33 39.84300 -85.88315 34006 ft 347 kts 268°
2026-05-08 02:34 39.83945 -85.94620 34005 ft 347 kts 268°
2026-05-08 02:34 39.83588 -86.00838 34006 ft 347 kts 267°
2026-05-08 02:35 39.83228 -86.07099 34018 ft 347 kts 268°
2026-05-08 02:35 39.82862 -86.13405 34020 ft 347 kts 268°
2026-05-08 02:36 39.82495 -86.19661 34003 ft 347 kts 268°
2026-05-08 02:36 39.82125 -86.25882 33996 ft 348 kts 267°
2026-05-08 02:37 39.81740 -86.32240 33995 ft 348 kts 267°
2026-05-08 02:37 39.81107 -86.38483 33999 ft 351 kts 258°
2026-05-08 02:38 39.79803 -86.44613 34002 ft 352 kts 259°
2026-05-08 02:38 39.78502 -86.50745 34007 ft 352 kts 259°
2026-05-08 02:39 39.77179 -86.56967 34030 ft 352 kts 259°
2026-05-08 02:39 39.75877 -86.63081 34022 ft 354 kts 259°
2026-05-08 02:40 39.74575 -86.69184 34032 ft 348 kts 259°
2026-05-08 02:40 39.73277 -86.75230 34048 ft 346 kts 259°
2026-05-08 02:41 39.71984 -86.81241 34051 ft 345 kts 259°
2026-05-08 02:41 39.70664 -86.87350 34057 ft 344 kts 259°
2026-05-08 02:42 39.69356 -86.93409 34055 ft 344 kts 259°
2026-05-08 02:42 39.68044 -86.99440 34214 ft 346 kts 259°
2026-05-08 02:43 39.67378 -87.02496 34328 ft 347 kts 259°
2026-05-08 02:43 39.66710 -87.05556 34443 ft 348 kts 259°
2026-05-08 02:43 39.66048 -87.08579 34567 ft 349 kts 258°
2026-05-08 02:43 39.65367 -87.11691 34673 ft 349 kts 258°
2026-05-08 02:44 39.64245 -87.16812 34876 ft 350 kts 258°
2026-05-08 02:44 39.63570 -87.19893 35008 ft 350 kts 258°
2026-05-08 02:44 39.62887 -87.23009 35145 ft 350 kts 258°
2026-05-08 02:45 39.62205 -87.26126 35265 ft 350 kts 258°
2026-05-08 02:45 39.61522 -87.29240 35396 ft 350 kts 258°
2026-05-08 02:45 39.60845 -87.32308 35524 ft 349 kts 258°
2026-05-08 02:45 39.60155 -87.35421 35642 ft 349 kts 258°
2026-05-08 02:46 39.59475 -87.38490 35767 ft 349 kts 258°
2026-05-08 02:46 39.58787 -87.41590 35914 ft 348 kts 258°
2026-05-08 02:46 39.57439 -87.47668 36026 ft 349 kts 258°
2026-05-08 02:47 39.56049 -87.53924 36036 ft 349 kts 258°
2026-05-08 02:47 39.54699 -87.59992 36026 ft 344 kts 258°
2026-05-08 02:48 39.53561 -87.65075 36032 ft 341 kts 258°
2026-05-08 02:48 39.52230 -87.71007 36032 ft 340 kts 258°
2026-05-08 02:49 39.50855 -87.77123 36018 ft 341 kts 258°
2026-05-08 02:49 39.49485 -87.83167 36016 ft 342 kts 258°
2026-05-08 02:50 39.48127 -87.89182 36020 ft 342 kts 258°
2026-05-08 02:50 39.46788 -87.95125 36016 ft 342 kts 258°
2026-05-08 02:51 39.45609 -88.00323 36016 ft 342 kts 258°
2026-05-08 02:51 39.44229 -88.06354 36012 ft 342 kts 257°
2026-05-08 02:52 39.42846 -88.12381 36002 ft 343 kts 257°
2026-05-08 02:52 39.41466 -88.18412 36005 ft 343 kts 257°
2026-05-08 02:53 39.40092 -88.24416 36005 ft 343 kts 257°
2026-05-08 02:53 39.38710 -88.30432 36008 ft 344 kts 257°
2026-05-08 02:54 39.37341 -88.36380 36010 ft 344 kts 257°
2026-05-08 02:54 39.35968 -88.42303 36012 ft 344 kts 257°
2026-05-08 02:55 39.33908 -88.51164 35970 ft 343 kts 257°
2026-05-08 02:56 39.32520 -88.57092 36014 ft 343 kts 257°
2026-05-08 02:56 39.31134 -88.63015 36014 ft 343 kts 257°
2026-05-08 02:57 39.29755 -88.68898 36029 ft 342 kts 257°
2026-05-08 02:57 39.28381 -88.74778 36023 ft 342 kts 257°
2026-05-08 02:58 39.26990 -88.80689 36029 ft 342 kts 257°
2026-05-08 02:58 39.25596 -88.86590 36011 ft 342 kts 257°
2026-05-08 02:59 39.24211 -88.92460 36016 ft 342 kts 257°
2026-05-08 02:59 39.22812 -88.98374 36011 ft 342 kts 257°
2026-05-08 03:00 39.21426 -89.04198 36011 ft 342 kts 257°
2026-05-08 03:00 39.20247 -89.09125 36014 ft 342 kts 257°
2026-05-08 03:01 39.18843 -89.15006 36021 ft 342 kts 257°
2026-05-08 03:01 39.17446 -89.20866 36020 ft 342 kts 257°
2026-05-08 03:02 39.16045 -89.26725 36005 ft 342 kts 257°
2026-05-08 03:02 39.14624 -89.32612 36006 ft 342 kts 257°
2026-05-08 03:03 39.13207 -89.38464 36006 ft 342 kts 257°
2026-05-08 03:03 39.11765 -89.44408 35968 ft 342 kts 257°
2026-05-08 03:04 39.10344 -89.50258 35988 ft 342 kts 257°
2026-05-08 03:04 39.08929 -89.56093 35996 ft 341 kts 257°
2026-05-08 03:05 39.07504 -89.61965 36006 ft 341 kts 257°
2026-05-08 03:05 39.06083 -89.67789 36008 ft 341 kts 257°
2026-05-08 03:06 39.04658 -89.73603 36000 ft 341 kts 257°
2026-05-08 03:06 39.03221 -89.79458 36002 ft 341 kts 257°
2026-05-08 03:07 39.01790 -89.85272 36007 ft 341 kts 256°
2026-05-08 03:07 39.00335 -89.91145 36006 ft 341 kts 257°
2026-05-08 03:08 38.98896 -89.96964 36009 ft 341 kts 257°
2026-05-08 03:08 38.97465 -90.02772 36015 ft 341 kts 256°
2026-05-08 03:09 38.95995 -90.08688 36019 ft 341 kts 256°
2026-05-08 03:09 38.94546 -90.14482 36022 ft 341 kts 256°
2026-05-08 03:10 38.93093 -90.20300 36022 ft 340 kts 256°
2026-05-08 03:10 38.91606 -90.26256 36005 ft 340 kts 256°
2026-05-08 03:11 38.90367 -90.31182 36008 ft 340 kts 256°
2026-05-08 03:11 38.88814 -90.37352 35967 ft 340 kts 256°
2026-05-08 03:12 38.87314 -90.43268 35969 ft 340 kts 256°
2026-05-08 03:12 38.85933 -90.49191 35978 ft 338 kts 263°
2026-05-08 03:13 38.85168 -90.55296 35985 ft 338 kts 263°
2026-05-08 03:13 38.84508 -90.60399 35989 ft 338 kts 262°
2026-05-08 03:14 38.83708 -90.66504 35992 ft 338 kts 262°
2026-05-08 03:14 38.82921 -90.72486 35991 ft 338 kts 262°
2026-05-08 03:15 38.82113 -90.78643 35994 ft 338 kts 262°
2026-05-08 03:15 38.81297 -90.84822 36000 ft 339 kts 262°
2026-05-08 03:16 38.80493 -90.90899 36001 ft 339 kts 262°
2026-05-08 03:16 38.79800 -90.96129 36000 ft 339 kts 262°
2026-05-08 03:17 38.78991 -91.02207 35999 ft 339 kts 262°
2026-05-08 03:17 38.78174 -91.08283 36005 ft 339 kts 262°
2026-05-08 03:18 38.77355 -91.14358 36005 ft 339 kts 262°
2026-05-08 03:18 38.76537 -91.20434 35996 ft 339 kts 262°
2026-05-08 03:19 38.75729 -91.26397 35999 ft 340 kts 262°
2026-05-08 03:19 38.74913 -91.32366 36005 ft 340 kts 262°
2026-05-08 03:20 38.74095 -91.38330 35998 ft 340 kts 262°
2026-05-08 03:20 38.73280 -91.44296 35992 ft 340 kts 262°
2026-05-08 03:21 38.72450 -91.50344 35997 ft 340 kts 262°
2026-05-08 03:21 38.71620 -91.56357 35978 ft 341 kts 262°
2026-05-08 03:22 38.70942 -91.61241 35986 ft 341 kts 262°
2026-05-08 03:22 38.69950 -91.68355 35982 ft 341 kts 262°
2026-05-08 03:23 38.69251 -91.73369 35982 ft 342 kts 262°
2026-05-08 03:23 38.68398 -91.79435 35987 ft 342 kts 262°
2026-05-08 03:24 38.67551 -91.85418 35987 ft 342 kts 262°
2026-05-08 03:24 38.66700 -91.91442 36006 ft 342 kts 262°
2026-05-08 03:25 38.65859 -91.97391 36010 ft 342 kts 261°
2026-05-08 03:25 38.64999 -92.03426 36009 ft 343 kts 261°
2026-05-08 03:26 38.64134 -92.09474 36010 ft 343 kts 262°
2026-05-08 03:26 38.63271 -92.15471 35972 ft 343 kts 261°
2026-05-08 03:27 38.62407 -92.21467 35997 ft 343 kts 261°
2026-05-08 03:27 38.61541 -92.27482 36002 ft 343 kts 261°
2026-05-08 03:28 38.60662 -92.33530 36003 ft 343 kts 261°
2026-05-08 03:28 38.59785 -92.39525 36011 ft 343 kts 261°
2026-05-08 03:29 38.58905 -92.45523 35999 ft 343 kts 261°
2026-05-08 03:29 38.58027 -92.51524 36003 ft 344 kts 261°
2026-05-08 03:30 38.56697 -92.60527 36004 ft 344 kts 261°
2026-05-08 03:31 38.54906 -92.72560 35985 ft 344 kts 261°
2026-05-08 03:32 38.53566 -92.81585 35995 ft 345 kts 261°
2026-05-08 03:32 38.52660 -92.87592 35995 ft 345 kts 261°
2026-05-08 03:33 38.51749 -92.93607 35995 ft 345 kts 261°
2026-05-08 03:33 38.50839 -92.99620 35994 ft 345 kts 261°
2026-05-08 03:34 38.49927 -93.05631 36003 ft 345 kts 261°
2026-05-08 03:34 38.49005 -93.11691 36000 ft 346 kts 261°
2026-05-08 03:35 38.48092 -93.17689 35990 ft 347 kts 261°
2026-05-08 03:35 38.47161 -93.23774 36004 ft 347 kts 261°
2026-05-08 03:36 38.46223 -93.29836 36010 ft 348 kts 261°
2026-05-08 03:36 38.45324 -93.35675 36012 ft 348 kts 261°
2026-05-08 03:37 38.44384 -93.41727 36012 ft 348 kts 260°
2026-05-08 03:37 38.43438 -93.47778 36011 ft 348 kts 260°
2026-05-08 03:38 38.42489 -93.53827 35996 ft 348 kts 260°
2026-05-08 03:38 38.41541 -93.59872 35997 ft 348 kts 260°
2026-05-08 03:39 38.40590 -93.65927 36000 ft 348 kts 260°
2026-05-08 03:39 38.39633 -93.71973 36001 ft 348 kts 260°
2026-05-08 03:40 38.38676 -93.78019 35987 ft 348 kts 260°
2026-05-08 03:40 38.37720 -93.84066 35963 ft 348 kts 260°
2026-05-08 03:41 38.36754 -93.90125 35968 ft 349 kts 260°
2026-05-08 03:41 38.35788 -93.96146 35972 ft 350 kts 260°
2026-05-08 03:42 38.34811 -94.02219 35968 ft 350 kts 260°
2026-05-08 03:42 38.33837 -94.08293 35974 ft 350 kts 260°
2026-05-08 03:43 38.32857 -94.14366 35973 ft 350 kts 260°
2026-05-08 03:43 38.31861 -94.20440 35966 ft 350 kts 259°
2026-05-08 03:44 38.30862 -94.26521 35968 ft 351 kts 260°
2026-05-08 03:44 38.29868 -94.32617 35968 ft 352 kts 259°
2026-05-08 03:45 38.28869 -94.38717 35964 ft 352 kts 259°
2026-05-08 03:45 38.27862 -94.44824 35964 ft 353 kts 259°
2026-05-08 03:46 38.26860 -94.50933 35962 ft 353 kts 260°
2026-05-08 03:46 38.25903 -94.57047 35965 ft 353 kts 260°
2026-05-08 03:47 38.24952 -94.63179 35945 ft 353 kts 260°
2026-05-08 03:47 38.23993 -94.69315 35947 ft 354 kts 260°
2026-05-08 03:48 38.23027 -94.75453 35950 ft 354 kts 260°
2026-05-08 03:48 38.22053 -94.81597 35953 ft 354 kts 260°
2026-05-08 03:49 38.21073 -94.87741 35956 ft 355 kts 260°
2026-05-08 03:49 38.20087 -94.93885 35954 ft 355 kts 260°
2026-05-08 03:50 38.19102 -95.00037 35944 ft 355 kts 259°
2026-05-08 03:50 38.18116 -95.06159 35938 ft 356 kts 259°
2026-05-08 03:51 38.17116 -95.12337 35942 ft 357 kts 259°
2026-05-08 03:51 38.16115 -95.18516 35943 ft 357 kts 259°
2026-05-08 03:52 38.15115 -95.24703 35942 ft 358 kts 259°
2026-05-08 03:52 38.14109 -95.30887 35945 ft 358 kts 259°
2026-05-08 03:53 38.13093 -95.37077 35931 ft 358 kts 259°
2026-05-08 03:53 38.12071 -95.43273 35934 ft 359 kts 259°
2026-05-08 03:54 38.11051 -95.49484 35930 ft 359 kts 259°
2026-05-08 03:54 38.10031 -95.55659 35932 ft 360 kts 259°
2026-05-08 03:55 38.09136 -95.61034 35932 ft 360 kts 259°
2026-05-08 03:55 38.08073 -95.67423 35948 ft 360 kts 259°
2026-05-08 03:56 38.07003 -95.73807 35943 ft 360 kts 259°
2026-05-08 03:56 38.05936 -95.80158 35941 ft 361 kts 259°
2026-05-08 03:57 38.04889 -95.86396 35937 ft 362 kts 259°
2026-05-08 03:57 38.03825 -95.92721 35924 ft 362 kts 259°
2026-05-08 03:58 38.02763 -95.98984 35939 ft 364 kts 259°
2026-05-08 03:58 38.01695 -96.05250 35946 ft 363 kts 259°
2026-05-08 03:59 38.00633 -96.11468 35940 ft 363 kts 259°
2026-05-08 03:59 37.99556 -96.17779 35934 ft 364 kts 259°
2026-05-08 04:00 37.98473 -96.24095 35929 ft 365 kts 259°
2026-05-08 04:00 37.97380 -96.30418 35931 ft 365 kts 258°
2026-05-08 04:01 37.96300 -96.36657 35933 ft 365 kts 258°
2026-05-08 04:01 37.95193 -96.43027 35930 ft 365 kts 258°
2026-05-08 04:02 37.94089 -96.49394 35913 ft 366 kts 258°
2026-05-08 04:02 37.92991 -96.55678 35912 ft 367 kts 258°
2026-05-08 04:03 37.91877 -96.62001 35929 ft 367 kts 258°
2026-05-08 04:03 37.90399 -96.70367 35941 ft 368 kts 258°
2026-05-08 04:04 37.89266 -96.76798 35948 ft 368 kts 258°
2026-05-08 04:04 37.88143 -96.83164 35953 ft 368 kts 258°
2026-05-08 04:05 37.87026 -96.89447 35939 ft 369 kts 258°
2026-05-08 04:05 37.85885 -96.95836 35936 ft 370 kts 258°
2026-05-08 04:06 37.84748 -97.02198 35934 ft 371 kts 258°
2026-05-08 04:06 37.83615 -97.08522 35935 ft 371 kts 258°
2026-05-08 04:07 37.82456 -97.14932 35955 ft 371 kts 258°
2026-05-08 04:07 37.81304 -97.21299 35947 ft 372 kts 258°
2026-05-08 04:08 37.80145 -97.27681 35948 ft 372 kts 258°
2026-05-08 04:08 37.78982 -97.34086 35957 ft 372 kts 258°
2026-05-08 04:09 37.77824 -97.40455 35943 ft 372 kts 258°
2026-05-08 04:09 37.76652 -97.46818 35952 ft 372 kts 258°
2026-05-08 04:10 37.75471 -97.53224 35929 ft 372 kts 258°
2026-05-08 04:10 37.74318 -97.59499 35896 ft 372 kts 257°
2026-05-08 04:11 37.73091 -97.65944 35884 ft 373 kts 257°
2026-05-08 04:11 37.71850 -97.72365 35887 ft 374 kts 257°
2026-05-08 04:12 37.70613 -97.78766 35889 ft 374 kts 257°
2026-05-08 04:12 37.69366 -97.85224 35897 ft 375 kts 257°
2026-05-08 04:13 37.68130 -97.91633 35874 ft 375 kts 257°
2026-05-08 04:13 37.66871 -97.98128 35872 ft 375 kts 257°
2026-05-08 04:14 37.65596 -98.04655 35875 ft 376 kts 257°
2026-05-08 04:14 37.64315 -98.11204 35878 ft 377 kts 257°
2026-05-08 04:15 37.63240 -98.16676 35882 ft 378 kts 257°
2026-05-08 04:15 37.61961 -98.23202 35888 ft 378 kts 257°
2026-05-08 04:16 37.60706 -98.29597 35898 ft 378 kts 257°
2026-05-08 04:16 37.59420 -98.36079 35880 ft 379 kts 257°
2026-05-08 04:17 37.58132 -98.42575 35884 ft 380 kts 257°
2026-05-08 04:17 37.56838 -98.49046 35908 ft 381 kts 256°
2026-05-08 04:18 37.55540 -98.55527 35923 ft 382 kts 256°
2026-05-08 04:18 37.54211 -98.62166 35932 ft 382 kts 257°
2026-05-08 04:19 37.52904 -98.68707 35937 ft 382 kts 256°
2026-05-08 04:19 37.51592 -98.75217 35936 ft 383 kts 257°
2026-05-08 04:20 37.50267 -98.81754 35928 ft 384 kts 257°
2026-05-08 04:20 37.48928 -98.88363 35926 ft 385 kts 257°
2026-05-08 04:21 37.47556 -98.95109 35923 ft 385 kts 257°
2026-05-08 04:21 37.46408 -99.00754 35921 ft 385 kts 257°
2026-05-08 04:22 37.45056 -99.07363 35908 ft 385 kts 256°
2026-05-08 04:22 37.43679 -99.14061 35896 ft 387 kts 257°
2026-05-08 04:23 37.42324 -99.20646 35896 ft 388 kts 257°
2026-05-08 04:23 37.40944 -99.27344 35900 ft 389 kts 257°
2026-05-08 04:24 37.39552 -99.34066 36018 ft 390 kts 256°
2026-05-08 04:24 37.38859 -99.37410 36167 ft 391 kts 256°
2026-05-08 04:24 37.38152 -99.40824 36357 ft 390 kts 256°
2026-05-08 04:25 37.37434 -99.44275 36549 ft 389 kts 256°
2026-05-08 04:25 37.36973 -99.46484 36656 ft 388 kts 256°
2026-05-08 04:25 37.36274 -99.49820 36797 ft 388 kts 256°
2026-05-08 04:25 37.35524 -99.53397 36939 ft 388 kts 256°
2026-05-08 04:26 37.34834 -99.56689 37077 ft 388 kts 256°
2026-05-08 04:26 37.34147 -99.59960 37212 ft 388 kts 256°
2026-05-08 04:26 37.33422 -99.63407 37353 ft 387 kts 256°
2026-05-08 04:26 37.32740 -99.66642 37495 ft 386 kts 256°
2026-05-08 04:27 37.32045 -99.69936 37641 ft 386 kts 256°
2026-05-08 04:27 37.31366 -99.73146 37748 ft 385 kts 255°
2026-05-08 04:27 37.30672 -99.76428 37904 ft 383 kts 255°
2026-05-08 04:27 37.29985 -99.79680 37934 ft 383 kts 255°
2026-05-08 04:28 37.28622 -99.86124 37934 ft 384 kts 255°
2026-05-08 04:28 37.27242 -99.92616 37936 ft 385 kts 255°
2026-05-08 04:29 37.25834 -99.99202 37939 ft 385 kts 255°
2026-05-08 04:29 37.24441 -100.05697 37940 ft 385 kts 255°
2026-05-08 04:30 37.23045 -100.12195 37944 ft 386 kts 255°
2026-05-08 04:30 37.21666 -100.18617 37951 ft 386 kts 255°
2026-05-08 04:31 37.20233 -100.25245 37942 ft 387 kts 255°
2026-05-08 04:31 37.18823 -100.31771 37943 ft 388 kts 255°
2026-05-08 04:32 37.17415 -100.38307 37947 ft 389 kts 255°
2026-05-08 04:32 37.15987 -100.44853 37957 ft 389 kts 255°
2026-05-08 04:33 37.14546 -100.51440 37962 ft 390 kts 255°
2026-05-08 04:33 37.13124 -100.57976 37976 ft 390 kts 255°
2026-05-08 04:34 37.11682 -100.64549 37972 ft 391 kts 255°
2026-05-08 04:34 37.10234 -100.71134 37978 ft 392 kts 255°
2026-05-08 04:35 37.08761 -100.77765 37990 ft 393 kts 255°
2026-05-08 04:35 37.07283 -100.84402 38001 ft 393 kts 255°
2026-05-08 04:36 37.06058 -100.89889 38006 ft 394 kts 255°
2026-05-08 04:36 37.04581 -100.96501 38011 ft 394 kts 253°
2026-05-08 04:37 37.02624 -101.03041 38012 ft 394 kts 250°
2026-05-08 04:37 37.00630 -101.09439 38009 ft 395 kts 250°
2026-05-08 04:38 36.98599 -101.15936 37999 ft 395 kts 250°
2026-05-08 04:38 36.96592 -101.22349 37990 ft 395 kts 250°
2026-05-08 04:39 36.94579 -101.28783 37989 ft 395 kts 250°
2026-05-08 04:39 36.92604 -101.35092 37940 ft 396 kts 249°
2026-05-08 04:40 36.90562 -101.41587 37944 ft 397 kts 249°
2026-05-08 04:40 36.88548 -101.47971 37962 ft 398 kts 249°
2026-05-08 04:41 36.86504 -101.54450 37971 ft 399 kts 249°
2026-05-08 04:41 36.84463 -101.60911 37975 ft 399 kts 249°
2026-05-08 04:42 36.82411 -101.67375 37974 ft 399 kts 249°
2026-05-08 04:42 36.80339 -101.73888 37962 ft 400 kts 249°
2026-05-08 04:43 36.78256 -101.80407 37976 ft 402 kts 249°
2026-05-08 04:43 36.76083 -101.87195 37970 ft 402 kts 249°
2026-05-08 04:44 36.73955 -101.93855 37965 ft 403 kts 249°
2026-05-08 04:44 36.72191 -101.99387 37962 ft 403 kts 249°
2026-05-08 04:45 36.70104 -102.05876 37945 ft 404 kts 249°
2026-05-08 04:45 36.68032 -102.12284 37928 ft 405 kts 249°
2026-05-08 04:46 36.65865 -102.18974 37927 ft 406 kts 249°
2026-05-08 04:46 36.63754 -102.25493 37941 ft 407 kts 249°
2026-05-08 04:47 36.61641 -102.32009 37947 ft 407 kts 249°
2026-05-08 04:47 36.59500 -102.38603 37951 ft 407 kts 249°
2026-05-08 04:48 36.57368 -102.45134 37927 ft 408 kts 249°
2026-05-08 04:48 36.55217 -102.51723 37934 ft 409 kts 249°
2026-05-08 04:49 36.53071 -102.58274 37942 ft 409 kts 248°
2026-05-08 04:49 36.50920 -102.64832 37962 ft 410 kts 249°
2026-05-08 04:50 36.48755 -102.71445 37965 ft 410 kts 248°
2026-05-08 04:50 36.46595 -102.78002 37972 ft 410 kts 248°
2026-05-08 04:51 36.44404 -102.84616 37967 ft 412 kts 248°
2026-05-08 04:51 36.42222 -102.91191 37972 ft 412 kts 248°
2026-05-08 04:52 36.40021 -102.97830 37984 ft 413 kts 248°
2026-05-08 04:52 36.37832 -103.04424 37990 ft 413 kts 248°
2026-05-08 04:53 36.35627 -103.11038 37990 ft 414 kts 248°
2026-05-08 04:53 36.33414 -103.17655 38054 ft 415 kts 249°
2026-05-08 04:54 36.31221 -103.24233 38038 ft 416 kts 249°
2026-05-08 04:54 36.28984 -103.30904 38027 ft 417 kts 248°
2026-05-08 04:55 36.26809 -103.37363 38017 ft 418 kts 248°
2026-05-08 04:55 36.24506 -103.44199 38007 ft 418 kts 248°
2026-05-08 04:56 36.22278 -103.50784 37988 ft 418 kts 249°
2026-05-08 04:56 36.19996 -103.57520 37977 ft 419 kts 248°
2026-05-08 04:57 36.17743 -103.64171 37980 ft 419 kts 248°
2026-05-08 04:57 36.15477 -103.70826 37991 ft 419 kts 248°
2026-05-08 04:58 36.13213 -103.77475 37994 ft 420 kts 248°
2026-05-08 04:58 36.10947 -103.84125 37989 ft 420 kts 248°
2026-05-08 04:59 36.08672 -103.90777 37969 ft 421 kts 248°
2026-05-08 04:59 36.06392 -103.97424 37969 ft 422 kts 248°
2026-05-08 05:00 36.04085 -104.04128 37966 ft 423 kts 248°
2026-05-08 05:00 36.01778 -104.10823 37972 ft 423 kts 248°
2026-05-08 05:01 35.99801 -104.16563 37977 ft 424 kts 248°
2026-05-08 05:01 35.97408 -104.23479 37954 ft 424 kts 248°
2026-05-08 05:02 35.95016 -104.30378 37942 ft 426 kts 248°
2026-05-08 05:02 35.92673 -104.37109 37944 ft 428 kts 248°
2026-05-08 05:03 35.90311 -104.43899 37955 ft 428 kts 248°
2026-05-08 05:03 35.87952 -104.50655 37965 ft 429 kts 248°
2026-05-08 05:04 35.85585 -104.57413 37968 ft 429 kts 248°
2026-05-08 05:04 35.83238 -104.64119 37975 ft 428 kts 248°
2026-05-08 05:05 35.80846 -104.70937 37979 ft 427 kts 248°
2026-05-08 05:05 35.78482 -104.77646 37982 ft 427 kts 248°
2026-05-08 05:06 35.76118 -104.84342 37978 ft 426 kts 248°
2026-05-08 05:06 35.73755 -104.91025 37976 ft 426 kts 247°
2026-05-08 05:07 35.71374 -104.97758 37952 ft 427 kts 247°
2026-05-08 05:07 35.70186 -105.01112 38110 ft 428 kts 247°
2026-05-08 05:07 35.68993 -105.04465 38127 ft 428 kts 247°
2026-05-08 05:08 35.66596 -105.11184 38128 ft 429 kts 248°
2026-05-08 05:08 35.65038 -105.18225 38131 ft 428 kts 260°
2026-05-08 05:09 35.63929 -105.25471 38134 ft 429 kts 259°
2026-05-08 05:09 35.62788 -105.32731 38088 ft 430 kts 259°
2026-05-08 05:10 35.61077 -105.43577 38032 ft 432 kts 259°
2026-05-08 05:11 35.59945 -105.50819 38002 ft 432 kts 260°
2026-05-08 05:11 35.58812 -105.58075 37972 ft 432 kts 259°
2026-05-08 05:12 35.57659 -105.65328 37969 ft 433 kts 259°
2026-05-08 05:12 35.56494 -105.72623 37959 ft 434 kts 260°
2026-05-08 05:13 35.55322 -105.79945 37956 ft 435 kts 260°
2026-05-08 05:13 35.54157 -105.87239 37957 ft 435 kts 260°
2026-05-08 05:14 35.52980 -105.94536 38086 ft 436 kts 259°
2026-05-08 05:14 35.51996 -106.00608 38101 ft 437 kts 260°
2026-05-08 05:15 35.50807 -106.07934 38103 ft 438 kts 260°
2026-05-08 05:15 35.49606 -106.15300 38093 ft 439 kts 260°
2026-05-08 05:16 35.48401 -106.22688 38071 ft 440 kts 259°
2026-05-08 05:16 35.47186 -106.30050 38042 ft 441 kts 259°
2026-05-08 05:17 35.45968 -106.37418 37996 ft 441 kts 260°
2026-05-08 05:17 35.44753 -106.44804 37952 ft 442 kts 260°
2026-05-08 05:18 35.43525 -106.52201 37940 ft 443 kts 260°
2026-05-08 05:18 35.42286 -106.59611 37947 ft 444 kts 260°
2026-05-08 05:19 35.41042 -106.67023 37961 ft 444 kts 260°
2026-05-08 05:19 35.39805 -106.74390 37946 ft 445 kts 260°
2026-05-08 05:20 35.38507 -106.82073 37964 ft 446 kts 260°
2026-05-08 05:20 35.37244 -106.89560 37965 ft 446 kts 260°
2026-05-08 05:21 35.35924 -106.97310 37974 ft 447 kts 259°
2026-05-08 05:21 35.34630 -107.04835 37978 ft 447 kts 259°
2026-05-08 05:22 35.33307 -107.12563 37976 ft 448 kts 260°
2026-05-08 05:22 35.32228 -107.18869 37984 ft 448 kts 260°
2026-05-08 05:23 35.30917 -107.26442 37990 ft 449 kts 260°
2026-05-08 05:23 35.29590 -107.34063 37997 ft 449 kts 260°
2026-05-08 05:24 35.28262 -107.41687 37987 ft 449 kts 260°
2026-05-08 05:24 35.26926 -107.49314 37993 ft 450 kts 260°
2026-05-08 05:25 35.25575 -107.57004 38000 ft 450 kts 260°
2026-05-08 05:25 35.24259 -107.64483 38004 ft 450 kts 259°
2026-05-08 05:26 35.22935 -107.71969 38002 ft 450 kts 259°
2026-05-08 05:26 35.21596 -107.79509 37985 ft 451 kts 259°
2026-05-08 05:26 35.20920 -107.83308 38214 ft 451 kts 259°
2026-05-08 05:27 35.20251 -107.87063 38215 ft 452 kts 260°
2026-05-08 05:27 35.18929 -107.94498 38219 ft 452 kts 259°
2026-05-08 05:28 35.17566 -108.02086 38215 ft 453 kts 259°
2026-05-08 05:28 35.16209 -108.09587 38168 ft 453 kts 259°
2026-05-08 05:28 35.15511 -108.13445 38001 ft 453 kts 259°
2026-05-08 05:29 35.15051 -108.15984 37995 ft 453 kts 259°
2026-05-08 05:29 35.13679 -108.23551 38000 ft 453 kts 259°
2026-05-08 05:30 35.12309 -108.31064 38004 ft 453 kts 259°
2026-05-08 05:30 35.10933 -108.38573 38005 ft 453 kts 259°
2026-05-08 05:31 35.09537 -108.46140 37997 ft 454 kts 259°
2026-05-08 05:31 35.08137 -108.53704 38000 ft 454 kts 259°
2026-05-08 05:32 35.06755 -108.61222 38002 ft 454 kts 260°
2026-05-08 05:32 35.05365 -108.68746 38003 ft 454 kts 259°
2026-05-08 05:33 35.03977 -108.76191 38165 ft 454 kts 259°
2026-05-08 05:33 35.02527 -108.83930 38196 ft 455 kts 259°
2026-05-08 05:34 35.01116 -108.91462 38199 ft 456 kts 259°
2026-05-08 05:34 34.99696 -108.98997 38203 ft 456 kts 259°
2026-05-08 05:35 34.98257 -109.06594 38170 ft 457 kts 259°
2026-05-08 05:35 34.96803 -109.14132 38117 ft 458 kts 256°
2026-05-08 05:36 34.94437 -109.21368 38062 ft 461 kts 248°
2026-05-08 05:36 34.91820 -109.28528 37998 ft 463 kts 248°
2026-05-08 05:37 34.89170 -109.35757 37965 ft 465 kts 248°
2026-05-08 05:37 34.86534 -109.42962 37986 ft 466 kts 248°
2026-05-08 05:38 34.83864 -109.50262 37995 ft 466 kts 248°
2026-05-08 05:38 34.81194 -109.57519 38003 ft 467 kts 248°
2026-05-08 05:39 34.78536 -109.64732 38002 ft 467 kts 248°
2026-05-08 05:39 34.75821 -109.72092 37998 ft 467 kts 248°
2026-05-08 05:40 34.73140 -109.79305 37854 ft 473 kts 248°
2026-05-08 05:40 34.71733 -109.83086 37570 ft 482 kts 248°
2026-05-08 05:40 34.70314 -109.86905 37306 ft 489 kts 248°
2026-05-08 05:40 34.69414 -109.89328 37131 ft 490 kts 248°
2026-05-08 05:41 34.67562 -109.94315 36783 ft 479 kts 248°
2026-05-08 05:41 34.66655 -109.96752 36613 ft 477 kts 248°
2026-05-08 05:41 34.65261 -110.00496 36351 ft 474 kts 248°
2026-05-08 05:41 34.63938 -110.04041 36096 ft 472 kts 248°
2026-05-08 05:42 34.62472 -110.07970 35839 ft 471 kts 248°
2026-05-08 05:42 34.61128 -110.11566 35590 ft 469 kts 248°
2026-05-08 05:42 34.59712 -110.15354 35331 ft 475 kts 248°
2026-05-08 05:42 34.58321 -110.19073 35087 ft 478 kts 249°
2026-05-08 05:43 34.56907 -110.22847 34853 ft 480 kts 249°
2026-05-08 05:43 34.55484 -110.26635 34605 ft 484 kts 248°
2026-05-08 05:43 34.54058 -110.30424 34362 ft 485 kts 248°
2026-05-08 05:43 34.52617 -110.34244 34130 ft 485 kts 249°
2026-05-08 05:44 34.51197 -110.38003 33794 ft 483 kts 249°
2026-05-08 05:44 34.49778 -110.41757 33129 ft 481 kts 248°
2026-05-08 05:44 34.48390 -110.45426 32523 ft 478 kts 248°
2026-05-08 05:44 34.46932 -110.49281 31859 ft 475 kts 248°
2026-05-08 05:45 34.46022 -110.51692 31455 ft 474 kts 248°
2026-05-08 05:45 34.44605 -110.55440 30910 ft 469 kts 248°
2026-05-08 05:45 34.43212 -110.59120 30355 ft 465 kts 248°
2026-05-08 05:45 34.41815 -110.62792 29610 ft 458 kts 248°
2026-05-08 05:46 34.40508 -110.66219 28896 ft 450 kts 248°
2026-05-08 05:46 34.39161 -110.69745 28308 ft 448 kts 248°
2026-05-08 05:46 34.37860 -110.73154 27738 ft 445 kts 248°
2026-05-08 05:46 34.36568 -110.76532 27145 ft 441 kts 246°
2026-05-08 05:47 34.35035 -110.79735 26576 ft 440 kts 236°
2026-05-08 05:47 34.33043 -110.82593 26070 ft 435 kts 227°
2026-05-08 05:47 34.30993 -110.85231 25420 ft 427 kts 227°
2026-05-08 05:47 34.28977 -110.87838 24857 ft 422 kts 228°
2026-05-08 05:48 34.26982 -110.90423 24322 ft 419 kts 228°
2026-05-08 05:48 34.25003 -110.92991 23786 ft 416 kts 228°
2026-05-08 05:48 34.23009 -110.95577 23187 ft 412 kts 228°
2026-05-08 05:48 34.21069 -110.98088 22797 ft 404 kts 227°
2026-05-08 05:49 34.19174 -111.00532 22368 ft 394 kts 227°
2026-05-08 05:49 34.17337 -111.02896 21658 ft 388 kts 227°
2026-05-08 05:49 34.15457 -111.05315 21137 ft 385 kts 227°
2026-05-08 05:49 34.13615 -111.07688 20630 ft 383 kts 227°
2026-05-08 05:50 34.11811 -111.10013 20163 ft 379 kts 227°
2026-05-08 05:50 34.09939 -111.12422 19641 ft 377 kts 227°
2026-05-08 05:50 34.08141 -111.14732 19121 ft 369 kts 227°
2026-05-08 05:50 34.06386 -111.16988 18635 ft 368 kts 227°
2026-05-08 05:51 34.04639 -111.19227 18130 ft 367 kts 227°
2026-05-08 05:51 34.02877 -111.21482 17632 ft 364 kts 227°
2026-05-08 05:51 34.01127 -111.23720 17133 ft 360 kts 227°
2026-05-08 05:51 33.99422 -111.25902 16731 ft 356 kts 227°
2026-05-08 05:52 33.97730 -111.28064 16268 ft 352 kts 227°
2026-05-08 05:52 33.96038 -111.30221 15920 ft 344 kts 227°
2026-05-08 05:52 33.94414 -111.32292 15360 ft 337 kts 228°
2026-05-08 05:52 33.92829 -111.34316 14877 ft 337 kts 228°
2026-05-08 05:53 33.91197 -111.36405 14420 ft 336 kts 228°
2026-05-08 05:53 33.89596 -111.38455 14024 ft 332 kts 228°
2026-05-08 05:53 33.87981 -111.40430 13546 ft 332 kts 221°
2026-05-08 05:53 33.86765 -111.41545 13257 ft 330 kts 216°
2026-05-08 05:54 33.84896 -111.43151 12750 ft 325 kts 216°
2026-05-08 05:54 33.83043 -111.44738 12325 ft 321 kts 217°
2026-05-08 05:54 33.80647 -111.46791 11755 ft 318 kts 216°
2026-05-08 05:54 33.79436 -111.47829 11476 ft 316 kts 216°
2026-05-08 05:55 33.77533 -111.49462 11031 ft 314 kts 216°
2026-05-08 05:55 33.75890 -111.50871 10677 ft 311 kts 217°
2026-05-08 05:55 33.74140 -111.52376 10272 ft 309 kts 217°
2026-05-08 05:55 33.72378 -111.53893 9842 ft 306 kts 217°
2026-05-08 05:56 33.70654 -111.55378 9435 ft 303 kts 217°
2026-05-08 05:56 33.68933 -111.56856 9290 ft 290 kts 218°
2026-05-08 05:56 33.67392 -111.58177 9178 ft 270 kts 217°
2026-05-08 05:56 33.65879 -111.59471 9079 ft 248 kts 217°
2026-05-08 05:57 33.64509 -111.60643 8953 ft 241 kts 218°
2026-05-08 05:57 33.63124 -111.61823 8704 ft 247 kts 217°
2026-05-08 05:57 33.61696 -111.63022 8361 ft 244 kts 217°
2026-05-08 05:57 33.60330 -111.64158 8062 ft 243 kts 217°
2026-05-08 05:58 33.58942 -111.65311 7752 ft 241 kts 218°
2026-05-08 05:58 33.57549 -111.66471 7454 ft 239 kts 218°
2026-05-08 05:58 33.56203 -111.67598 7157 ft 237 kts 218°
2026-05-08 05:58 33.54824 -111.68756 6858 ft 235 kts 218°
2026-05-08 05:59 33.53529 -111.69848 6569 ft 232 kts 218°
2026-05-08 05:59 33.52147 -111.71017 6258 ft 233 kts 219°
2026-05-08 05:59 33.50878 -111.72086 5966 ft 232 kts 219°
2026-05-08 05:59 33.49568 -111.73190 5672 ft 231 kts 219°
2026-05-08 06:00 33.48251 -111.74304 5377 ft 230 kts 219°
2026-05-08 06:00 33.46826 -111.75509 5070 ft 227 kts 219°
2026-05-08 06:00 33.45541 -111.76608 4763 ft 220 kts 223°
2026-05-08 06:00 33.45045 -111.77177 4601 ft 215 kts 233°
2026-05-08 06:01 33.44089 -111.79619 4210 ft 191 kts 263°
2026-05-08 06:01 33.44050 -111.80016 4150 ft 188 kts 268°
2026-05-08 06:01 33.44044 -111.82193 3835 ft 159 kts 272°
2026-05-08 06:01 33.44045 -111.82489 3788 ft 155 kts 272°
2026-05-08 06:02 33.44051 -111.84676 3455 ft 144 kts 271°
2026-05-08 06:02 33.44054 -111.85882 3271 ft 143 kts 271°
2026-05-08 06:02 33.44058 -111.87194 3043 ft 142 kts 271°
2026-05-08 06:02 33.44060 -111.88340 2869 ft 142 kts 270°
2026-05-08 06:03 33.44063 -111.89420 2707 ft 142 kts 271°
2026-05-08 06:03 33.44066 -111.90690 2514 ft 141 kts 271°
2026-05-08 06:03 33.44068 -111.91777 2348 ft 141 kts 271°
2026-05-08 06:03 33.44070 -111.92487 2244 ft 141 kts 270°
2026-05-08 06:04 33.44075 -111.95439 1821 ft 145 kts 270°
2026-05-08 06:04 33.44077 -111.96595 1645 ft 147 kts 270°
2026-05-08 06:04 33.44079 -111.97517 1477 ft 147 kts 270°
2026-05-08 06:05 33.44081 -111.98920 1252 ft 147 kts 270°
2026-05-08 06:05 33.44083 -112.00291 1133 ft 134 kts 270°
2026-05-08 06:06 33.44061 -112.02004 1120 ft 14 kts 232°
2026-05-08 06:06 33.43986 -112.02001 1123 ft 9 kts 113°
2026-05-08 06:06 33.43983 -112.01989 1124 ft 0 kts 107°
2026-05-08 06:07 33.43979 -112.01957 1134 ft 10 kts 97°
2026-05-08 06:07 33.43976 -112.01803 1132 ft 13 kts 89°
2026-05-08 06:08 33.43978 -112.01655 1134 ft 12 kts 89°
2026-05-08 06:08 33.43978 -112.01553 1134 ft 12 kts 91°
2026-05-08 06:08 33.43977 -112.01528 1134 ft 12 kts 91°
2026-05-08 06:08 33.43976 -112.01339 1133 ft 16 kts 89°
2026-05-08 06:09 33.43976 -112.01253 1135 ft 17 kts 90°
2026-05-08 06:09 33.43976 -112.01172 1135 ft 16 kts 90°
2026-05-08 06:09 33.43975 -112.00969 1134 ft 16 kts 90°
2026-05-08 06:09 33.43975 -112.00848 1132 ft 16 kts 90°
2026-05-08 06:10 33.43974 -112.00709 1135 ft 15 kts 90°
2026-05-08 06:10 33.43975 -112.00568 1134 ft 15 kts 89°
2026-05-08 06:10 33.43976 -112.00482 1134 ft 14 kts 89°
2026-05-08 06:10 33.43976 -112.00374 1134 ft 13 kts 92°
2026-05-08 06:11 33.43975 -112.00226 1135 ft 11 kts 89°
2026-05-08 06:11 33.43975 -112.00197 1135 ft 11 kts 88°
2026-05-08 06:11 33.43953 -112.00091 1133 ft 10 kts 141°
2026-05-08 06:11 33.43886 -112.00074 1131 ft 10 kts 182°
2026-05-08 06:12 33.43812 -112.00065 1133 ft 8 kts 152°
2026-05-08 06:12 33.43789 -112.00016 1131 ft 7 kts 97°
2026-05-08 06:12 33.43789 -111.99989 1132 ft 0 kts 90°